SKYSAT-C13 (43802 NORAD) Tracking and Keplerian Element Data

This shows tracking and keplerian element data for the satellite.

Feedback or suggestion? Click here.




ElementValue
Catalog43802
NameSKYSAT-C13
Epoch Orbit400
Epoch Day1.56630541
Epoch Year2019
RAAN75.5049
Inclination97.7613
Eccentricity0.000796
Argument of Perigee264.4179
Mean Anonmoly95.6136
Mean Motion14.98487248
Decay Rate-2.65E-06
L11 43802U 18099AW 19001.56630541 -.00000265 00000-0 -17202-4 0 9996
L22 43802 97.7613 75.5049 0007960 264.4179 95.6136 14.98487248 4006

Live tracking and technical data element details for SKYSAT-C13 (NORAD 43802). SKYSAT-C13 can be tracked NOW for your location showing map with azimuth and elevation plus other details from your city location.

Track the satellite on the map from your city or location and see movement details for azimuth, elevation, latitude, longitude, range, height, and movement on the map or in text.







IsCatalogInMostPopularTable: catalog: 43802, numindb: 52
Update: records affected: 1



GetName: 43802 SKYSAT-C13

Hit Count: updated at: Wed, 17 Jul 2019 09:18:11 GMT